Puyallup, WA
on Tuesday, January 8, 2013

Tuesday
Previous Day Next Day
Daily Summary
 ActualAverage (KSEA)Record (KSEA)
Temperature
Mean Temperature °F 42°F  
Max Temperature 55°F 46°F 54°F (1953)
Min Temperature 41°F 37°F 18°F (1949)
Degree Days
Heating Degree Days 17 24  
Month to date heating degree days 192  
Since 1 July heating degree days 2130  
Cooling Degree Days 0 0  
Month to date cooling degree days 0  
Year to date cooling degree days 0  
Moisture
Dew Point 44°F   
Average Humidity 87    
Maximum Humidity 100    
Minimum Humidity 58    
Precipitation
Precipitation 0.12 in 0.20 in 1.13 in (1959)
Month to date precipitation 1.50  
Year to date precipitation 1.50  
Snow
Snow 0.00 in in 4.40 in (1980)
Month to date snowfall  
Since 1 July snowfall  
Snow Depth in   
Wind
Wind Speed 3 mph   
Max Wind Speed 15 mph   
Max Gust Speed 29 mph   
Visibility 8 miles   
Events Rain   

Key: T is trace of precipitation, MM is missing value
Source: NWS Daily Summary
Time(PST)TemperatureDew PointHumidity Pressure Visibility Wind DirectionWind SpeedGust SpeedPrecipitationEvents Conditions
12:15 AM 44.6°F 41.0°F 87% 30.17 in 10.0 miles Calm Calm - N/A   Clear
12:35 AM 44.6°F 41.0°F 87% 30.17 in 10.0 miles SSW 3.5 mph - N/A   Clear
12:55 AM 44.6°F 41.0°F 87% 30.17 in 10.0 miles Calm Calm - N/A   Clear
1:15 AM 44.6°F 39.2°F 81% 30.17 in 10.0 miles Calm Calm - N/A   Clear
1:35 AM 44.6°F 39.2°F 81% 30.17 in 10.0 miles Calm Calm - N/A   Clear
1:55 AM 44.6°F 39.2°F 81% 30.17 in 10.0 miles Calm Calm - N/A   Clear
2:15 AM 44.6°F 39.2°F 81% 30.16 in 10.0 miles Calm Calm - N/A   Clear
2:35 AM 44.6°F 39.2°F 81% 30.15 in 10.0 miles Calm Calm - N/A   Partly Cloudy
2:55 AM 42.8°F 39.2°F 87% 30.16 in 10.0 miles Calm Calm - N/A   Clear
3:15 AM 41.0°F 39.2°F 93% 30.15 in 10.0 miles Calm Calm - N/A   Clear
3:35 AM 41.0°F 39.2°F 93% 30.15 in 10.0 miles Calm Calm - N/A   Clear
3:55 AM 41.0°F 39.2°F 93% 30.14 in 10.0 miles Calm Calm - N/A   Partly Cloudy
4:15 AM 41.0°F 41.0°F 100% 30.14 in 10.0 miles Calm Calm - N/A Rain Light Rain
4:35 AM 41.0°F 41.0°F 100% 30.14 in 10.0 miles Calm Calm - N/A Rain Light Rain
4:55 AM 42.8°F 39.2°F 87% 30.13 in 10.0 miles Calm Calm - N/A   Clear
5:15 AM 44.6°F 39.2°F 81% 30.12 in 10.0 miles Calm Calm - N/A   Clear
5:35 AM 42.8°F 39.2°F 87% 30.12 in 10.0 miles Calm Calm - N/A   Clear
5:55 AM 41.0°F 39.2°F 93% 30.10 in 8.0 miles Calm Calm - N/A Rain Light Rain
6:15 AM 41.0°F 41.0°F 100% 30.08 in 8.0 miles Calm Calm - 0.01 in Rain Light Rain
6:35 AM 41.0°F 41.0°F 100% 30.07 in 10.0 miles Calm Calm - 0.01 in Rain Light Rain
6:55 AM 41.0°F 41.0°F 100% 30.06 in 9.0 miles Calm Calm - 0.01 in Rain Light Rain
7:15 AM 41.0°F 41.0°F 100% 30.04 in 7.0 miles Calm Calm - N/A Rain Light Rain
7:35 AM 41.0°F 41.0°F 100% 30.04 in 7.0 miles Calm Calm - N/A Rain Light Rain
7:55 AM 41.0°F 41.0°F 100% 30.03 in 4.0 miles East 3.5 mph - 0.02 in Rain Light Rain
8:15 AM 41.0°F 41.0°F 100% 30.02 in 3.0 miles Calm Calm - 0.01 in Rain Light Rain
8:35 AM 41.0°F 41.0°F 100% 30.01 in 5.0 miles Calm Calm - 0.02 in Rain Light Rain
9:15 AM 41.0°F 41.0°F 100% 30.01 in 1.2 miles Calm Calm - N/A Rain Light Rain
9:35 AM 41.0°F 41.0°F 100% 30.01 in 1.5 miles Calm Calm - 0.01 in Rain Light Rain
9:55 AM 41.0°F 41.0°F 100% 30.01 in 1.2 miles Calm Calm - 0.02 in Rain Light Rain
10:15 AM 41.0°F 41.0°F 100% 29.99 in 2.5 miles Calm Calm - 0.01 in Rain Light Rain
10:35 AM 41.0°F 41.0°F 100% 29.98 in 2.5 miles Calm Calm - 0.01 in Rain Light Rain
10:55 AM 44.6°F 44.6°F 100% 29.97 in 2.5 miles South 3.5 mph - 0.02 in Rain Light Rain
11:15 AM 46.4°F 46.4°F 100% 29.95 in 4.0 miles South 5.8 mph - N/A Rain Light Rain
11:35 AM 46.4°F 46.4°F 100% 29.94 in 5.0 miles South 6.9 mph - 0.01 in Rain Light Rain
11:55 AM 46.4°F 46.4°F 100% 29.94 in 10.0 miles SSW 8.1 mph - 0.01 in   Mostly Cloudy
12:15 PM 46.4°F 46.4°F 100% 29.93 in 3.0 miles South 6.9 mph - 0.01 in Rain Light Rain
12:35 PM 48.2°F 46.4°F 93% 29.92 in 8.0 miles SSW 9.2 mph - 0.01 in Rain Light Rain
12:55 PM 48.2°F 46.4°F 93% 29.92 in 9.0 miles SSW 6.9 mph - 0.02 in   Partly Cloudy
1:15 PM 48.2°F 48.2°F 100% 29.91 in 5.0 miles SSW 6.9 mph - N/A Rain Light Rain
1:35 PM 48.2°F 48.2°F 100% 29.90 in 8.0 miles SSW 8.1 mph - N/A Rain Light Rain
1:55 PM 50.0°F 48.2°F 94% 29.89 in 10.0 miles South 9.2 mph - N/A   Partly Cloudy
2:15 PM 50.0°F 48.2°F 94% 29.88 in 10.0 miles SSW 8.1 mph - N/A   Partly Cloudy
2:35 PM 50.0°F 48.2°F 94% 29.88 in 10.0 miles SSW 9.2 mph - N/A   Partly Cloudy
2:55 PM 51.8°F 48.2°F 88% 29.88 in 10.0 miles SSW 8.1 mph 17.3 mph N/A Rain Light Rain
3:15 PM 51.8°F 48.2°F 88% 29.88 in 10.0 miles SW 6.9 mph 17.3 mph N/A Rain Light Rain
3:35 PM 51.8°F 48.2°F 88% 29.88 in 7.0 miles SSW 9.2 mph 18.4 mph N/A Rain Light Rain
3:55 PM 51.8°F 48.2°F 88% 29.87 in 10.0 miles SSW 8.1 mph - N/A   Mostly Cloudy
4:35 PM 51.8°F 48.2°F 88% 29.85 in 10.0 miles SSW 6.9 mph - N/A   Mostly Cloudy
4:55 PM 53.6°F 48.2°F 82% 29.84 in 10.0 miles SSW 11.5 mph 23.0 mph N/A   Mostly Cloudy
5:15 PM 53.6°F 46.4°F 77% 29.83 in 10.0 miles SW 13.8 mph 24.2 mph N/A   Mostly Cloudy
5:55 PM 53.6°F 46.4°F 77% 29.83 in 10.0 miles SSW 13.8 mph 28.8 mph N/A   Scattered Clouds
6:15 PM 53.6°F 46.4°F 77% 29.83 in 10.0 miles SSW 15.0 mph 28.8 mph N/A   Scattered Clouds
6:35 PM 53.6°F 46.4°F 77% 29.82 in 10.0 miles SSW 6.9 mph 24.2 mph N/A   Scattered Clouds
6:55 PM 53.6°F 46.4°F 77% 29.82 in 10.0 miles SW 11.5 mph 17.3 mph N/A   Scattered Clouds
7:15 PM 53.6°F 46.4°F 77% 29.82 in 10.0 miles SSW 11.5 mph 18.4 mph N/A   Mostly Cloudy
7:35 PM 53.6°F 46.4°F 77% 29.81 in 10.0 miles SSW 8.1 mph - N/A   Mostly Cloudy
7:55 PM 53.6°F 46.4°F 77% 29.81 in 10.0 miles SSW 6.9 mph - N/A   Mostly Cloudy
8:15 PM 53.6°F 46.4°F 77% 29.80 in 10.0 miles SSW 12.7 mph 19.6 mph N/A   Mostly Cloudy
8:35 PM 53.6°F 46.4°F 77% 29.80 in 10.0 miles SSW 9.2 mph 24.2 mph N/A   Scattered Clouds
8:55 PM 53.6°F 44.6°F 72% 29.79 in 10.0 miles SSW 12.7 mph 20.7 mph N/A   Partly Cloudy
9:15 PM 53.6°F 44.6°F 72% 29.79 in 10.0 miles SSW 12.7 mph 26.5 mph N/A   Scattered Clouds
9:35 PM 53.6°F 44.6°F 72% 29.78 in 10.0 miles SSW 12.7 mph 21.9 mph N/A   Scattered Clouds
10:15 PM 55.4°F 44.6°F 67% 29.77 in 10.0 miles SSW 15.0 mph 26.5 mph N/A   Partly Cloudy
10:35 PM 55.4°F 44.6°F 67% 29.76 in 10.0 miles SSW 15.0 mph 25.3 mph N/A   Partly Cloudy
10:55 PM 53.6°F 44.6°F 72% 29.75 in 10.0 miles SSW 11.5 mph 23.0 mph N/A   Partly Cloudy
11:15 PM 55.4°F 42.8°F 63% 29.75 in 10.0 miles South 12.7 mph 20.7 mph N/A   Clear
11:35 PM 55.4°F 42.8°F 63% 29.75 in 10.0 miles South 12.7 mph 28.8 mph N/A   Scattered Clouds
11:55 PM 55.4°F 41.0°F 58% 29.74 in 10.0 miles SSW 10.4 mph 19.6 mph N/A   Mostly Cloudy
Moon Phase
Jan. 08 Jan. 11 Jan. 18 Jan. 26 Feb. 03
Sunrise:07:54 AM (PST) Moon Rise:04:32 AM (PST)1/8
Sunset:04:38 PM (PST) Moon Set:01:46 PM (PST)1/8

Copyright © 2014 The Weather Underground, Inc.